Simultaneous Nadir Overpasses (SNOs) Predictions

Prediction of SNOs between METOP-C and LANDSAT-8 Satellite Orbit:

Table of predicted SNOs for the next 14.0 days since TLE Epoch: 3/9/2024
Index Date (METOP-C) Time (METOP-C) Lat,Lon (METOP-C) SZA (METOP-C ) Date (LANDSAT-8) Time (LANDSAT-8) Lat,Lon (LANDSAT-8) SZA (LANDSAT-8 ) Distance(km) Time Diff (sec)
1 03/10/2024 13:04:35 81.13, 23.37 86.65 03/10/2024 13:05:00 81.14, 23.52 86.68 2.60 25
2 03/10/2024 13:55:15 -81.16,-168.62 93.28 03/10/2024 13:54:26 -81.16,-168.60 93.30 0.36 49
3 03/13/2024 08:38:56 81.14, 90.11 85.61 03/13/2024 08:39:14 81.15, 90.06 85.61 0.92 18
4 03/13/2024 09:29:36 -81.17,-101.86 94.33 03/13/2024 09:28:40 -81.16,-102.03 94.37 2.99 56
5 03/16/2024 04:13:18 81.14, 156.40 84.51 03/16/2024 04:13:28 81.14, 156.38 84.51 0.32 10
6 03/16/2024 05:03:58 -81.16, -35.56 95.43 03/16/2024 05:02:54 -81.16, -35.68 95.47 2.23 64
7 03/18/2024 22:57:12 -80.94, 50.61 97.18 03/18/2024 22:58:26 -80.83, 50.93 97.22 13.55 74
8 03/18/2024 23:47:38 81.15,-137.02 83.44 03/18/2024 23:47:40 81.14,-137.15 83.42 2.39 2
9 03/19/2024 00:38:19 -81.16, 30.65 96.54 03/19/2024 00:37:06 -81.16, 30.81 96.55 2.66 73
10 03/21/2024 18:31:21 -81.13, 121.54 97.71 03/21/2024 18:32:27 -81.13, 121.43 97.69 1.80 66



Historial Predications of SNOs between METOP-C and LANDSAT-8
